カタログに戻る

STARLINK-5183

運用中通信VLEO
NORAD 54084·PAYLOAD·🇺🇸 United States

打ち上げ Oct 20, 2022 から Cape Canaveral Space Force Station

Loading…

次のパス (今後24時間)

TLE

最新Source: CelesTrak SupGP

元期: Sep 15, 2026, 02:55 UTC

1 54084C 22136AK  26258.12201389  .00285970  00000+0  12272-1 0  2587
2 54084  53.1592 202.6505 0001721  83.0156  85.1934 15.22050765    16

AllMySatでSTARLINK-5183をリアルタイム追跡

Download on the App Store